Location: Christian Reformed Church
(43.0975°N, 93.8113°W)
Time: 21:21:11
(UTC+00:00)

BREEZE-M DEB (TANK) - Pass Details

Date: 13 December 2025
Orbit: 316 x 11320 km, 49.7° (Epoch: 11 January)

Event Time Altitude Azimuth Distance (km) Brightness Sun altitude
Rises 12:39:32 0° 229° (SW) 3,769 7.3 -10.5°
Reaches altitude 10° 12:43:07 10° 224° (SW) 2,022 6.0 -9.8°
Maximum altitude 12:46:46 46° 150° (SSE) 527 3.7 -9.2°
Drops below altitude 10° 12:49:01 10° 73° (ENE) 1,235 5.9 -8.9°
Sets 12:50:40 0° 66° (ENE) 2,061 6.9 -8.6°
